Overview Statistics Trail Chart Weather Telemetry Raw packets
 

This is the latest recevied weather packets stored in our database for station/object WX5KDM. If no packets are shown the sender has not sent any weather packets the latest 10 day(s).

<< 22 23 24 25 26 27 28 >>
Time Temp. Humidity Pressure Rain* Wind** Luminosity Snow
1788468938 38.33° C 44% 1013.9 hPa 0 mm - - -
1788468653 37.78° C 43% 1014.1 hPa 0 mm - - -
1788468328 37.78° C 43% 1014.2 hPa 0 mm - - -
1788468023 38.33° C 42% 1014.2 hPa 0 mm - - -
1788467719 38.33° C 43% 1014.1 hPa 0 mm - - -
1788467418 38.89° C 42% 1014.1 hPa 0 mm - - -
1788467114 38.33° C 42% 1014.4 hPa 0 mm - - -
1788466809 37.22° C 44% 1014.3 hPa 0 mm - - -
1788466504 38.33° C 43% 1014.5 hPa 0 mm - - -
1788466202 37.78° C 46% 1014.6 hPa 0 mm - - -
1788465898 37.78° C 43% 1014.7 hPa 0 mm - - -
1788465618 37.78° C 43% 1014.6 hPa 0 mm - - -
1788465290 37.22° C 44% 1014.7 hPa 0 mm - - -
1788464984 37.78° C 43% 1014.8 hPa 0 mm - - -
1788464680 37.78° C 43% 1015 hPa 0 mm - - -
1788464375 36.67° C 44% 1015 hPa 0 mm - - -
1788464071 37.22° C 47% 1015.1 hPa 0 mm - - -
1788463766 37.22° C 45% 1015.3 hPa 0 mm - - -
1788463463 36.11° C 47% 1015.1 hPa 0 mm - - -
1788463158 36.11° C 49% 1015.3 hPa 0 mm - - -
1788462855 37.22° C 47% 1015.4 hPa 0 mm - - -
1788462553 36.11° C 50% 1015.5 hPa 0 mm - - -
1788462248 36.11° C 50% 1015.5 hPa 0 mm - - -
1788461947 35.56° C 50% 1015.6 hPa 0 mm - - -
1788461642 36.11° C 50% 1015.8 hPa 0 mm - - -

* Rain latest hour (hover to see other rain measurements)
** Current wind speed in m/s (hover to see current wind gust speed)